Caribou, ME

1:10 AM EDT on March 24, 2017 (GMT -0400)
Caribou Municipal

Weather History for KCAR - October, 2011

Change the Weather History Date:

Saturday, October 29, 2011

  Actual Average Record
Temperature  
Mean Temperature 35 °F 38 °F  
Max Temperature 43 °F 46 °F 66 °F (1989)
Min Temperature 27 °F 31 °F 16 °F (1973)
Degree Days  
Heating Degree Days 30 26  
Month to date heating degree days 500 618  
Since 1 July heating degree days 748 1085  
Cooling Degree Days 0 0  
Month to date cooling degree days 5 0  
Year to date cooling degree days 175 180  
Moisture  
Dew Point 25 °F    
Average Humidity 68    
Maximum Humidity 85    
Minimum Humidity 51    
Precipitation  
Precipitation T in 0.12 in 1.54 in (2003)
Month to date precipitation 3.81 3.30  
Year to date precipitation 50.15 31.36  
Snow  
Snow T in 0.10 in 9.40 in (1963)
Month to date snowfall T 1.4  
Since 1 July snowfall T 1.5  
Since 1 September snowfall T 1.5  
Snow Depth 0.00 in    
Sea Level Pressure  
Sea Level Pressure 30.19 in    
Wind  
Wind Speed 5 mph (NNW)    
Max Wind Speed 13 mph    
Max Gust Speed 17 mph    
Visibility 10 miles    
Events      
T = Trace of Precipitation, MM = Missing Value Source: NWS Daily Summary

Daily Weather History Graph

Daily Weather History Graph

Search for Another Location

Airport or City:

Trip Planner

Search our weather history database for the weather conditions in past years. The results will help you decide how hot, cold, wet, or windy it might be!

Date:

Astronomy

Oct. 29, 2011 Rise Set
Actual Time 7:09 AM EDT 5:21 PM EDT
Civil Twilight 6:38 AM EDT 5:52 PM EDT
Nautical Twilight 6:02 AM EDT 6:28 PM EDT
Astronomical Twilight 5:27 AM EDT 7:03 PM EDT
Moon 10:40 AM EDT (10/29) 7:28 PM EDT (10/29)
Length of Visible Light 11h 14m
Length of Day
10h 11m
Waxing Crescent, 11% of the Moon is Illuminated
Oct 29
Waxing Crescent
Nov 2
First Quarter
Nov 10
Full
Nov 18
Last Quarter
Nov 25
New

Hourly Weather History & Observations

Time (EDT) Temp. Windchill Dew Point Humidity Pressure Visibility Wind Dir Wind Speed Gust Speed Precip Events Conditions
12:54 AM 28.9 °F 23.9 °F 21.9 °F 75% 30.13 in 10.0 mi West 4.6 mph - N/A   Clear
1:54 AM 27.0 °F 21.6 °F 21.0 °F 78% 30.15 in 10.0 mi WSW 4.6 mph - N/A   Clear
2:54 AM 27.0 °F 19.5 °F 21.0 °F 78% 30.16 in 10.0 mi WSW 6.9 mph - N/A   Clear
3:54 AM 28.0 °F 24.2 °F 21.9 °F 78% 30.17 in 10.0 mi West 3.5 mph - N/A   Clear
4:54 AM 28.0 °F 24.2 °F 21.9 °F 78% 30.18 in 10.0 mi North 3.5 mph - N/A   Clear
5:54 AM 28.0 °F 22.8 °F 21.9 °F 78% 30.21 in 10.0 mi West 4.6 mph - N/A   Clear
6:54 AM 27.0 °F 21.6 °F 21.9 °F 81% 30.22 in 10.0 mi SW 4.6 mph - N/A   Clear
7:54 AM 28.9 °F 25.2 °F 23.0 °F 78% 30.24 in 10.0 mi West 3.5 mph - N/A   Clear
8:54 AM 28.9 °F - 25.0 °F 85% 30.27 in 10.0 mi Calm Calm - N/A   Mostly Cloudy
9:38 AM 32.0 °F - 24.8 °F 75% 30.23 in 10.0 mi Calm Calm - N/A   Mostly Cloudy
9:50 AM 33.8 °F 30.8 °F 26.6 °F 75% 30.23 in 10.0 mi SW 3.5 mph - N/A   Scattered Clouds
9:54 AM 34.0 °F 31.0 °F 27.0 °F 75% 30.27 in 10.0 mi WSW 3.5 mph - N/A   Partly Cloudy
10:54 AM 39.0 °F 34.0 °F 26.1 °F 60% 30.25 in 10.0 mi North 6.9 mph - N/A   Partly Cloudy
11:54 AM 37.9 °F 34.4 °F 25.0 °F 60% 30.25 in 10.0 mi North 4.6 mph - N/A   Mostly Cloudy
12:54 PM 41.0 °F 38.0 °F 26.1 °F 55% 30.22 in 10.0 mi NW 4.6 mph - N/A   Mostly Cloudy
1:54 PM 42.1 °F 38.4 °F 26.1 °F 53% 30.23 in 10.0 mi NNW 5.8 mph - N/A   Partly Cloudy
2:54 PM 41.0 °F 35.8 °F 25.0 °F 53% 30.20 in 10.0 mi North 8.1 mph - N/A   Clear
3:54 PM 39.9 °F 35.8 °F 26.1 °F 58% 30.21 in 10.0 mi NNE 5.8 mph - N/A   Clear
4:54 PM 37.9 °F 35.5 °F 25.0 °F 60% 30.19 in 10.0 mi NNE 3.5 mph - N/A   Clear
5:22 PM 37.4 °F 32.8 °F 24.8 °F 60% 30.15 in 2.0 mi North 5.8 mph - N/A   Haze
5:30 PM 37.4 °F 33.8 °F 26.6 °F 65% 30.15 in 8.0 mi North 4.6 mph - N/A   Clear
5:54 PM 37.0 °F 33.3 °F 26.1 °F 65% 30.18 in 10.0 mi North 4.6 mph - N/A   Clear
6:54 PM 35.1 °F 31.0 °F 26.1 °F 70% 30.16 in 10.0 mi NNE 4.6 mph - N/A   Clear
7:54 PM 35.6 °F 31.7 °F 26.6 °F 70% 30.16 in 10.0 mi North 4.6 mph - N/A   Clear
8:54 PM 34.0 °F 28.0 °F 26.1 °F 73% 30.14 in 10.0 mi NNE 6.9 mph - N/A   Clear
9:54 PM 35.1 °F 31.0 °F 26.1 °F 70% 30.16 in 10.0 mi NNE 4.6 mph - N/A   Partly Cloudy
10:54 PM 35.1 °F 29.3 °F 26.1 °F 70% 30.10 in 10.0 mi NNE 6.9 mph - N/A   Overcast
11:54 PM 35.1 °F 26.9 °F 25.0 °F 67% 30.07 in 10.0 mi NE 11.5 mph - N/A   Overcast